| time (UTC) | temp F | wind direction | speed knots | gust knots | rain 1hr in | rain 24hr in | rain mn in | humidity % | barometer mb |
| 20260506001505 | 68 | 119 | 0.0 | 0.0 | 0.00 | 0.00 | 0.00 | 63 | 1014.7 |
| 20260506001005 | 69 | 119 | 0.0 | 0.0 | 0.00 | 0.00 | 0.00 | 63 | 1014.5 |
| 20260506000505 | 69 | 119 | 0.0 | 0.0 | 0.00 | 0.00 | 0.00 | 62 | 1014.5 |
| 20260505235505 | 69 | 119 | 0.0 | 0.0 | 0.00 | 0.00 | 0.00 | 61 | 1015.0 |
| 20260505235005 | 70 | 119 | 0.0 | 0.0 | 0.00 | 0.00 | 0.00 | 62 | 1014.9 |
| 20260505234505 | 70 | 119 | 0.0 | 0.0 | 0.00 | 0.00 | 0.00 | 59 | 1014.8 |
| 20260505233505 | 70 | 119 | 0.0 | 0.0 | 0.00 | 0.00 | 0.00 | 58 | 1014.7 |
| 20260505233005 | 70 | 119 | 0.0 | 0.0 | 0.00 | 0.00 | 0.00 | 56 | 1014.7 |
| 20260505232005 | 71 | 119 | 0.0 | 0.0 | 0.00 | 0.00 | 0.00 | 53 | 1014.9 |
| 20260505230505 | 71 | 119 | 0.0 | 0.0 | 0.00 | 0.00 | 0.00 | 52 | 1015.1 |
| 20260505230005 | 71 | 119 | 0.0 | 0.0 | 0.00 | 0.00 | 0.00 | 51 | 1015.0 |
| 20260505225505 | 72 | 119 | 0.0 | 0.0 | 0.00 | 0.00 | 0.00 | 51 | 1015.0 |
| 20260505225005 | 72 | 119 | 0.0 | 0.0 | 0.00 | 0.00 | 0.00 | 50 | 1015.0 |
| 20260505224505 | 72 | 119 | 0.0 | 0.0 | 0.00 | 0.00 | 0.00 | 49 | 1015.0 |
| 20260505224005 | 72 | 119 | 0.0 | 0.0 | 0.00 | 0.00 | 0.00 | 48 | 1015.0 |
| 20260505223505 | 72 | 119 | 0.0 | 0.0 | 0.00 | 0.00 | 0.00 | 46 | 1015.1 |
| 20260505222505 | 72 | 119 | 0.0 | 0.0 | 0.00 | 0.00 | 0.00 | 45 | 1015.2 |
| 20260505222005 | 72 | 119 | 0.0 | 0.0 | 0.00 | 0.00 | 0.00 | 45 | 1015.2 |
| 20260505221505 | 72 | 119 | 0.0 | 0.0 | 0.00 | 0.00 | 0.00 | 44 | 1015.3 |
| 20260505221005 | 72 | 119 | 0.0 | 0.0 | 0.00 | 0.00 | 0.00 | 45 | 1015.3 |
| 20260505220505 | 73 | 119 | 0.0 | 0.0 | 0.00 | 0.00 | 0.00 | 45 | 1015.2 |
| 20260505220005 | 73 | 119 | 0.0 | 0.0 | 0.00 | 0.00 | 0.00 | 44 | 1014.9 |
| 20260505215504 | 73 | 119 | 0.0 | 0.0 | 0.00 | 0.00 | 0.00 | 43 | 1014.8 |
| 20260505215005 | 73 | 119 | 0.0 | 0.0 | 0.00 | 0.00 | 0.00 | 42 | 1014.7 |
| 20260505214505 | 73 | 119 | 0.0 | 0.9 | 0.00 | 0.00 | 0.00 | 42 | 1014.9 |
| 20260505214005 | 73 | 123 | 0.0 | 1.7 | 0.00 | 0.00 | 0.00 | 43 | 1015.1 |
| 20260505213505 | 73 | 171 | 0.0 | 2.6 | 0.00 | 0.00 | 0.00 | 42 | 1014.9 |
| 20260505213006 | 73 | 117 | 0.9 | 2.6 | 0.00 | 0.00 | 0.00 | 42 | 1014.9 |
| 20260505212504 | 73 | 81 | 0.0 | 1.7 | 0.00 | 0.00 | 0.00 | 41 | 1014.9 |
| 20260505212005 | 73 | 75 | 0.9 | 2.6 | 0.00 | 0.00 | 0.00 | 41 | 1015.0 |
| 20260505211505 | 74 | 71 | 0.9 | 2.6 | 0.00 | 0.00 | 0.00 | 40 | 1014.9 |
| 20260505210505 | 74 | 224 | 0.0 | 0.9 | 0.00 | 0.00 | 0.00 | 39 | 1015.1 |
| 20260505210006 | 74 | 156 | 0.9 | 2.6 | 0.00 | 0.00 | 0.00 | 38 | 1015.2 |
| 20260505205005 | 74 | 111 | 0.9 | 2.6 | 0.00 | 0.00 | 0.00 | 41 | 1014.9 |
| 20260505204505 | 74 | 115 | 0.9 | 1.7 | 0.00 | 0.00 | 0.00 | 40 | 1014.9 |
| 20260505204005 | 75 | 119 | 0.0 | 0.9 | 0.00 | 0.00 | 0.00 | 42 | 1014.9 |
| 20260505203505 | 74 | 119 | 0.0 | 0.0 | 0.00 | 0.00 | 0.00 | 42 | 1014.9 |
| 20260505203005 | 75 | 115 | 0.0 | 0.9 | 0.00 | 0.00 | 0.00 | 42 | 1014.9 |
| 20260505202505 | 75 | 148 | 0.0 | 0.0 | 0.00 | 0.00 | 0.00 | 41 | 1014.7 |
| 20260505201504 | 75 | 151 | 0.0 | 0.9 | 0.00 | 0.00 | 0.00 | 41 | 1015.1 |
| 20260505201005 | 75 | 151 | 0.0 | 5.2 | 0.00 | 0.00 | 0.00 | 40 | 1015.1 |
| 20260505200505 | 75 | 33 | 0.9 | 2.6 | 0.00 | 0.00 | 0.00 | 40 | 1015.3 |
| 20260505200005 | 75 | 58 | 0.0 | 2.6 | 0.00 | 0.00 | 0.00 | 39 | 1015.2 |
| 20260505195505 | 75 | 119 | 0.0 | 2.6 | 0.00 | 0.00 | 0.00 | 40 | 1015.2 |
| 20260505195005 | 75 | 196 | 0.0 | 2.6 | 0.00 | 0.00 | 0.00 | 40 | 1015.2 |
| 20260505194505 | 75 | 108 | 0.9 | 2.6 | 0.00 | 0.00 | 0.00 | 38 | 1015.3 |
| 20260505194005 | 75 | 117 | 0.0 | 2.6 | 0.00 | 0.00 | 0.00 | 41 | 1015.3 |
| 20260505193504 | 75 | 105 | 0.9 | 1.7 | 0.00 | 0.00 | 0.00 | 42 | 1015.3 |
| 20260505193005 | 75 | 107 | 0.0 | 1.7 | 0.00 | 0.00 | 0.00 | 43 | 1015.5 |
| 20260505192504 | 75 | 109 | 0.0 | 2.6 | 0.00 | 0.00 | 0.00 | 42 | 1015.5 |
| 20260505192005 | 76 | 118 | 0.9 | 2.6 | 0.00 | 0.00 | 0.00 | 43 | 1015.6 |
| 20260505191505 | 76 | 122 | 0.0 | 1.7 | 0.00 | 0.00 | 0.00 | 42 | 1015.7 |
| 20260505191005 | 76 | 118 | 0.9 | 2.6 | 0.00 | 0.00 | 0.00 | 42 | 1015.9 |
| 20260505190504 | 76 | 219 | 0.9 | 6.1 | 0.00 | 0.00 | 0.00 | 40 | 1016.0 |
| 20260505190005 | 76 | 116 | 0.0 | 1.7 | 0.00 | 0.00 | 0.00 | 41 | 1015.9 |
| 20260505185505 | 76 | 116 | 0.0 | 2.6 | 0.00 | 0.00 | 0.00 | 40 | 1016.0 |
| 20260505185005 | 76 | 141 | 0.9 | 2.6 | 0.00 | 0.00 | 0.00 | 40 | 1015.8 |
| 20260505184505 | 76 | 232 | 1.7 | 2.6 | 0.00 | 0.00 | 0.00 | 40 | 1015.8 |
| 20260505184004 | 75 | 208 | 0.9 | 4.3 | 0.00 | 0.00 | 0.00 | 40 | 1015.9 |
| 20260505183505 | 75 | 155 | 0.9 | 2.6 | 0.00 | 0.00 | 0.00 | 41 | 1016.1 |
| 20260505182505 | 74 | 179 | 0.9 | 2.6 | 0.00 | 0.00 | 0.00 | 42 | 1016.1 |
| 20260505182005 | 74 | 101 | 0.9 | 2.6 | 0.00 | 0.00 | 0.00 | 45 | 1016.3 |
| 20260505181005 | 74 | 108 | 0.0 | 2.6 | 0.00 | 0.00 | 0.00 | 44 | 1016.4 |
| 20260505180504 | 74 | 79 | 1.7 | 2.6 | 0.00 | 0.00 | 0.00 | 44 | 1016.5 |
| 20260505180005 | 74 | 134 | 0.9 | 2.6 | 0.00 | 0.00 | 0.00 | 46 | 1016.5 |
| 20260505175504 | 74 | 204 | 0.0 | 2.6 | 0.00 | 0.00 | 0.00 | 47 | 1016.7 |
| 20260505175004 | 73 | 97 | 0.0 | 2.6 | 0.00 | 0.00 | 0.00 | 47 | 1016.7 |
| 20260505174506 | 73 | 92 | 0.9 | 2.6 | 0.00 | 0.00 | 0.00 | 46 | 1016.8 |
| 20260505174004 | 73 | 88 | 0.9 | 2.6 | 0.00 | 0.00 | 0.00 | 47 | 1016.9 |
| 20260505173504 | 74 | 264 | 0.0 | 2.6 | 0.00 | 0.00 | 0.00 | 45 | 1017.0 |
| 20260505173005 | 74 | 264 | 1.7 | 2.6 | 0.00 | 0.00 | 0.00 | 48 | 1016.8 |
| 20260505172504 | 74 | 268 | 0.9 | 2.6 | 0.00 | 0.00 | 0.00 | 47 | 1017.0 |
| 20260505172004 | 73 | 149 | 0.9 | 2.6 | 0.00 | 0.00 | 0.00 | 47 | 1017.1 |
| 20260505171505 | 73 | 110 | 0.0 | 2.6 | 0.00 | 0.00 | 0.00 | 46 | 1017.3 |
| 20260505171005 | 73 | 168 | 0.9 | 2.6 | 0.00 | 0.00 | 0.00 | 46 | 1017.4 |
| 20260505170505 | 73 | 232 | 0.9 | 2.6 | 0.00 | 0.00 | 0.00 | 45 | 1017.3 |
| 20260505170005 | 73 | 111 | 0.9 | 2.6 | 0.00 | 0.00 | 0.00 | 45 | 1017.0 |
| 20260505165504 | 73 | 72 | 0.9 | 2.6 | 0.00 | 0.00 | 0.00 | 44 | 1017.0 |
| 20260505165004 | 73 | 119 | 0.9 | 2.6 | 0.00 | 0.00 | 0.00 | 43 | 1016.8 |
| 20260505164505 | 72 | 263 | 0.0 | 0.0 | 0.00 | 0.00 | 0.00 | 44 | 1017.0 |
| 20260505164004 | 72 | 261 | 0.9 | 4.3 | 0.00 | 0.00 | 0.00 | 46 | 1017.0 |
| 20260505163505 | 72 | 299 | 0.0 | 2.6 | 0.00 | 0.00 | 0.00 | 46 | 1017.2 |
| 20260505163005 | 71 | 178 | 1.7 | 2.6 | 0.00 | 0.00 | 0.00 | 47 | 1017.3 |
| 20260505162505 | 71 | 66 | 1.7 | 4.3 | 0.00 | 0.00 | 0.00 | 46 | 1017.4 |
| 20260505162004 | 71 | 80 | 0.9 | 1.7 | 0.00 | 0.00 | 0.00 | 46 | 1017.4 |
| 20260505161505 | 71 | 120 | 1.7 | 2.6 | 0.00 | 0.00 | 0.00 | 47 | 1017.5 |
| 20260505161004 | 70 | 19 | 0.0 | 1.7 | 0.00 | 0.00 | 0.00 | 47 | 1017.4 |
| 20260505152504 | 67 | 87 | 0.0 | 1.7 | 0.00 | 0.00 | 0.00 | 58 | 1017.9 |
| 20260505152005 | 67 | 59 | 0.9 | 1.7 | 0.00 | 0.00 | 0.00 | 64 | 1017.8 |
| 20260505151004 | 65 | 186 | 0.0 | 2.6 | 0.00 | 0.00 | 0.00 | 63 | 1018.1 |
| 20260505140505 | 57 | 249 | 0.0 | 0.0 | 0.00 | 0.00 | 0.00 | 82 | 1018.3 |
| 20260505125004 | 49 | 249 | 0.0 | 0.0 | 0.00 | 0.00 | 0.00 | 93 | 1017.7 |
| 20260505123505 | 48 | 249 | 0.0 | 0.0 | 0.00 | 0.00 | 0.00 | 93 | 1017.7 |
| 20260505123004 | 47 | 249 | 0.0 | 0.0 | 0.00 | 0.00 | 0.00 | 92 | 1017.9 |
| 20260505122504 | 47 | 249 | 0.0 | 0.0 | 0.00 | 0.00 | 0.00 | 93 | 1017.9 |
| 20260505121504 | 46 | 249 | 0.0 | 0.0 | 0.00 | 0.00 | 0.00 | 92 | 1017.6 |
| 20260505120504 | 46 | 249 | 0.0 | 0.0 | 0.00 | 0.00 | 0.00 | 92 | 1017.7 |
| 20260505120005 | 46 | 249 | 0.0 | 0.0 | 0.00 | 0.00 | 0.00 | 92 | 1017.2 |
| 20260505115504 | 46 | 249 | 0.0 | 0.0 | 0.00 | 0.00 | 0.00 | 92 | 1017.2 |
| 20260505115004 | 46 | 249 | 0.0 | 0.0 | 0.00 | 0.00 | 0.00 | 91 | 1017.1 |
| 20260505114504 | 45 | 249 | 0.0 | 0.0 | 0.00 | 0.00 | 0.00 | 91 | 1017.1 |
| 20260505114004 | 45 | 249 | 0.0 | 0.0 | 0.00 | 0.00 | 0.00 | 91 | 1017.0 |
| 20260505113505 | 45 | 249 | 0.0 | 0.0 | 0.00 | 0.00 | 0.00 | 91 | 1016.9 |
| 20260505112004 | 45 | 249 | 0.0 | 0.0 | 0.00 | 0.00 | 0.00 | 90 | 1016.6 |
| 20260505111504 | 45 | 249 | 0.0 | 0.0 | 0.00 | 0.00 | 0.00 | 90 | 1016.7 |
| 20260505110505 | 45 | 249 | 0.0 | 0.0 | 0.00 | 0.00 | 0.00 | 90 | 1016.8 |
| 20260505101505 | 46 | 249 | 0.0 | 0.0 | 0.00 | 0.00 | 0.00 | 89 | 1016.3 |
| 20260505101004 | 46 | 249 | 0.0 | 0.0 | 0.00 | 0.00 | 0.00 | 89 | 1016.4 |
| 20260505100505 | 46 | 249 | 0.0 | 0.0 | 0.00 | 0.00 | 0.00 | 89 | 1016.4 |
| 20260505100004 | 46 | 249 | 0.0 | 0.0 | 0.00 | 0.00 | 0.00 | 89 | 1016.3 |
| 20260505095504 | 46 | 249 | 0.0 | 0.0 | 0.00 | 0.00 | 0.00 | 89 | 1016.2 |
| 20260505094504 | 46 | 249 | 0.0 | 0.0 | 0.00 | 0.00 | 0.00 | 89 | 1016.3 |
| 20260505094005 | 46 | 249 | 0.0 | 0.0 | 0.00 | 0.00 | 0.00 | 89 | 1016.3 |
| 20260505093504 | 46 | 249 | 0.0 | 0.0 | 0.00 | 0.00 | 0.00 | 89 | 1016.3 |
| 20260505093005 | 46 | 249 | 0.0 | 0.0 | 0.00 | 0.00 | 0.00 | 89 | 1016.3 |
| 20260505092504 | 46 | 249 | 0.0 | 0.0 | 0.00 | 0.00 | 0.00 | 89 | 1016.3 |
| 20260505092004 | 46 | 249 | 0.0 | 0.0 | 0.00 | 0.00 | 0.00 | 89 | 1016.3 |
| 20260505091504 | 46 | 249 | 0.0 | 0.0 | 0.00 | 0.00 | 0.00 | 89 | 1016.2 |
| 20260505090505 | 46 | 249 | 0.0 | 0.0 | 0.00 | 0.00 | 0.00 | 88 | 1016.4 |
| 20260505090004 | 46 | 249 | 0.0 | 0.0 | 0.00 | 0.00 | 0.00 | 88 | 1016.3 |
| 20260505085505 | 46 | 249 | 0.0 | 0.0 | 0.00 | 0.00 | 0.00 | 88 | 1016.3 |
| 20260505085004 | 46 | 249 | 0.0 | 0.0 | 0.00 | 0.00 | 0.00 | 88 | 1016.3 |
| 20260505084504 | 46 | 249 | 0.0 | 0.0 | 0.00 | 0.00 | 0.00 | 88 | 1016.4 |
| 20260505084004 | 47 | 249 | 0.0 | 0.0 | 0.00 | 0.00 | 0.00 | 88 | 1016.5 |
| 20260505083504 | 47 | 249 | 0.0 | 0.0 | 0.00 | 0.00 | 0.00 | 88 | 1016.4 |
| 20260505083005 | 47 | 249 | 0.0 | 0.0 | 0.00 | 0.00 | 0.00 | 88 | 1016.4 |
| 20260505082504 | 47 | 249 | 0.0 | 0.0 | 0.00 | 0.00 | 0.00 | 88 | 1016.5 |
| 20260505082004 | 47 | 249 | 0.0 | 0.0 | 0.00 | 0.00 | 0.00 | 88 | 1016.4 |
| 20260505081504 | 47 | 249 | 0.0 | 0.0 | 0.00 | 0.00 | 0.00 | 88 | 1016.3 |
| 20260505081004 | 47 | 249 | 0.0 | 0.0 | 0.00 | 0.00 | 0.00 | 88 | 1016.3 |
| 20260505080505 | 47 | 249 | 0.0 | 0.0 | 0.00 | 0.00 | 0.00 | 88 | 1016.4 |
| 20260505080004 | 47 | 249 | 0.0 | 0.0 | 0.00 | 0.00 | 0.00 | 87 | 1016.4 |
| 20260505075504 | 47 | 249 | 0.0 | 0.0 | 0.00 | 0.00 | 0.00 | 88 | 1016.3 |
| 20260505074504 | 47 | 249 | 0.0 | 0.0 | 0.00 | 0.00 | 0.00 | 88 | 1016.3 |
| 20260505074004 | 47 | 249 | 0.0 | 0.0 | 0.00 | 0.00 | 0.00 | 87 | 1016.3 |
| 20260505073504 | 47 | 249 | 0.0 | 0.0 | 0.00 | 0.00 | 0.00 | 87 | 1016.3 |
| 20260505073004 | 47 | 249 | 0.0 | 0.0 | 0.00 | 0.00 | 0.00 | 87 | 1016.3 |
| 20260505072504 | 48 | 249 | 0.0 | 0.0 | 0.00 | 0.00 | 0.00 | 87 | 1016.3 |
| 20260505072004 | 48 | 249 | 0.0 | 0.0 | 0.00 | 0.00 | 0.00 | 87 | 1016.3 |
| 20260505071003 | 48 | 249 | 0.0 | 0.0 | 0.00 | 0.00 | 0.00 | 87 | 1016.3 |
| 20260505070504 | 48 | 249 | 0.0 | 0.0 | 0.00 | 0.00 | 0.00 | 87 | 1016.3 |
| 20260505070004 | 48 | 249 | 0.0 | 0.0 | 0.00 | 0.00 | 0.00 | 86 | 1016.0 |
| 20260505065503 | 48 | 249 | 0.0 | 0.0 | 0.00 | 0.00 | 0.00 | 86 | 1016.0 |
| 20260505065004 | 48 | 249 | 0.0 | 0.0 | 0.00 | 0.00 | 0.00 | 86 | 1016.1 |
| 20260505063504 | 49 | 249 | 0.0 | 0.0 | 0.00 | 0.00 | 0.00 | 86 | 1016.0 |
| 20260505063005 | 49 | 249 | 0.0 | 0.0 | 0.00 | 0.00 | 0.00 | 86 | 1016.1 |
| 20260505062504 | 49 | 249 | 0.0 | 0.0 | 0.00 | 0.00 | 0.00 | 85 | 1016.1 |
| 20260505062004 | 49 | 249 | 0.0 | 0.0 | 0.00 | 0.00 | 0.00 | 85 | 1016.2 |
| 20260505061504 | 49 | 249 | 0.0 | 0.0 | 0.00 | 0.00 | 0.00 | 85 | 1016.3 |
| 20260505061003 | 49 | 249 | 0.0 | 0.0 | 0.00 | 0.00 | 0.00 | 85 | 1016.3 |
| 20260505060504 | 49 | 249 | 0.0 | 0.0 | 0.00 | 0.00 | 0.00 | 85 | 1016.3 |
| 20260505060004 | 49 | 249 | 0.0 | 0.0 | 0.00 | 0.00 | 0.00 | 85 | 1016.4 |
| 20260505055504 | 50 | 249 | 0.0 | 0.0 | 0.00 | 0.00 | 0.00 | 85 | 1016.4 |
| 20260505055004 | 50 | 249 | 0.0 | 0.0 | 0.00 | 0.00 | 0.00 | 84 | 1016.5 |
| 20260505054504 | 50 | 249 | 0.0 | 0.0 | 0.00 | 0.00 | 0.00 | 84 | 1016.6 |
| 20260505054004 | 50 | 249 | 0.0 | 0.0 | 0.00 | 0.00 | 0.00 | 84 | 1016.6 |
| 20260505053504 | 50 | 249 | 0.0 | 0.0 | 0.00 | 0.00 | 0.00 | 84 | 1016.5 |
| 20260505053005 | 50 | 249 | 0.0 | 0.0 | 0.00 | 0.00 | 0.00 | 84 | 1016.6 |
| 20260505052504 | 50 | 249 | 0.0 | 0.0 | 0.00 | 0.00 | 0.00 | 84 | 1016.6 |
| 20260505052004 | 50 | 249 | 0.0 | 0.0 | 0.00 | 0.00 | 0.00 | 84 | 1016.6 |
| 20260505051503 | 50 | 249 | 0.0 | 0.0 | 0.00 | 0.00 | 0.00 | 84 | 1016.7 |
| 20260505051005 | 50 | 249 | 0.0 | 0.0 | 0.00 | 0.00 | 0.00 | 84 | 1016.6 |
| 20260505050504 | 51 | 249 | 0.0 | 0.0 | 0.00 | 0.00 | 0.00 | 84 | 1016.4 |
| 20260505041504 | 52 | 249 | 0.0 | 0.0 | 0.00 | 0.00 | 0.00 | 83 | 1016.4 |
| 20260505041004 | 52 | 249 | 0.0 | 0.0 | 0.00 | 0.00 | 0.00 | 82 | 1016.5 |
| 20260505040005 | 52 | 249 | 0.0 | 0.0 | 0.00 | 0.00 | 0.00 | 82 | 1016.7 |
| 20260505035504 | 52 | 249 | 0.0 | 0.0 | 0.00 | 0.00 | 0.00 | 82 | 1016.7 |
| 20260505035004 | 52 | 249 | 0.0 | 0.0 | 0.00 | 0.00 | 0.00 | 82 | 1016.7 |
| 20260505034003 | 53 | 249 | 0.0 | 0.0 | 0.00 | 0.00 | 0.00 | 81 | 1016.6 |
| 20260505033504 | 53 | 249 | 0.0 | 0.0 | 0.00 | 0.00 | 0.00 | 81 | 1016.8 |
| 20260505033004 | 53 | 249 | 0.0 | 0.0 | 0.00 | 0.00 | 0.00 | 80 | 1016.8 |
| 20260505032503 | 53 | 249 | 0.0 | 0.0 | 0.00 | 0.00 | 0.00 | 80 | 1016.8 |
| 20260505032004 | 53 | 249 | 0.0 | 0.0 | 0.00 | 0.00 | 0.00 | 80 | 1016.8 |
| 20260505031004 | 54 | 249 | 0.0 | 0.0 | 0.00 | 0.00 | 0.00 | 79 | 1016.7 |
| 20260505030503 | 54 | 249 | 0.0 | 0.0 | 0.00 | 0.00 | 0.00 | 79 | 1016.7 |
| 20260505030003 | 54 | 249 | 0.0 | 0.0 | 0.00 | 0.00 | 0.00 | 79 | 1016.9 |
| 20260505025504 | 54 | 249 | 0.0 | 0.0 | 0.00 | 0.00 | 0.00 | 78 | 1016.9 |
| 20260505025004 | 55 | 249 | 0.0 | 0.0 | 0.00 | 0.00 | 0.00 | 78 | 1016.8 |
| 20260505023505 | 56 | 249 | 0.0 | 0.0 | 0.00 | 0.00 | 0.00 | 76 | 1016.7 |
| 20260505023006 | 56 | 249 | 0.0 | 0.0 | 0.00 | 0.00 | 0.00 | 76 | 1016.6 |
| 20260505022505 | 56 | 249 | 0.0 | 0.0 | 0.00 | 0.00 | 0.00 | 75 | 1016.6 |
| 20260505022005 | 56 | 249 | 0.0 | 0.0 | 0.00 | 0.00 | 0.00 | 75 | 1016.4 |
| 20260505021505 | 57 | 249 | 0.0 | 0.0 | 0.00 | 0.00 | 0.00 | 74 | 1016.4 |
| 20260505021005 | 57 | 249 | 0.0 | 0.0 | 0.00 | 0.00 | 0.00 | 74 | 1016.4 |
| 20260505020505 | 57 | 249 | 0.0 | 0.0 | 0.00 | 0.00 | 0.00 | 73 | 1016.3 |
| 20260505020005 | 58 | 249 | 0.0 | 0.0 | 0.00 | 0.00 | 0.00 | 73 | 1016.6 |
| 20260505015505 | 58 | 249 | 0.0 | 0.0 | 0.00 | 0.00 | 0.00 | 73 | 1016.6 |
| 20260505014514 | 58 | 249 | 0.0 | 0.0 | 0.00 | 0.00 | 0.00 | 72 | 1016.5 |
| 20260505013505 | 59 | 249 | 0.0 | 0.0 | 0.00 | 0.00 | 0.00 | 70 | 1016.3 |
| 20260505013006 | 60 | 249 | 0.0 | 0.0 | 0.00 | 0.00 | 0.00 | 70 | 1016.2 |
| 20260505012505 | 60 | 249 | 0.0 | 0.0 | 0.00 | 0.00 | 0.00 | 69 | 1016.2 |
| 20260505012005 | 61 | 249 | 0.0 | 0.0 | 0.00 | 0.00 | 0.00 | 69 | 1016.2 |
| 20260505005505 | 63 | 249 | 0.0 | 0.0 | 0.00 | 0.00 | 0.00 | 65 | 1016.5 |
| 20260505005005 | 63 | 249 | 0.0 | 0.0 | 0.00 | 0.00 | 0.00 | 65 | 1016.4 |
| 20260505004005 | 64 | 249 | 0.0 | 0.0 | 0.00 | 0.00 | 0.00 | 64 | 1016.3 |
| 20260505003506 | 64 | 249 | 0.0 | 0.0 | 0.00 | 0.00 | 0.00 | 63 | 1016.1 |
| 20260505003005 | 65 | 249 | 0.0 | 0.0 | 0.00 | 0.00 | 0.00 | 63 | 1016.0 |
| 20260505002505 | 65 | 249 | 0.0 | 0.0 | 0.00 | 0.00 | 0.00 | 62 | 1016.0 |